Home   Weather   Bratsk   Past weeks
Flag for Russia

Past Weather in Bratsk, Russia — Yesterday and Last 2 Weeks

Now
50 °F

Clear.


Feels Like: 49 °F
Forecast: 59 / 50 °F
Wind: 3 mph from East

Location: Bratsk / Irkutsk

Current Time: Sep 21, 2019 at 4:34:04 am

Latest Report: Sep 21, 2019 at 4:00 am


Visibility: N/A

Pressure: 29.86 "Hg

Humidity: 88%

Dew Point: 46 °F

Location of BratskLocation

Past Weather in Bratsk — Graph

°F

Bratsk Temperature Yesterday

Maximum temperature yesterday: 68 °F (at 3:00 pm)
Minimum temperature yesterday: 46 °F (at 6:00 am)
Average temperature yesterday: 58 °F

High & Low Weather Summary for the Past Weeks

 TemperatureHumidityPressure
High68 °F (Sep 20, 3:00 pm)100% (Sep 6, 6:00 am)30.18 "Hg (Sep 6, 6:00 am)
Low30 °F (Sep 14, 7:30 am)40% (Sep 16, 3:00 pm)29.65 "Hg (Sep 14, 3:00 am)
Average46 °F81%29.96 "Hg
* Reported Sep 6 3:00 am — Sep 21 3:00 am, Bratsk. Weather by CustomWeather, © 2019

Note: Actual official high and low records may vary slightly from our data, if they occured in-between our weather recording intervals... More about our weather records

Advertising

Bratsk Weather History for the Previous 24 Hours

Scroll right to see more
 ConditionsComfort  
Time TempWeatherWind HumidityBarometerVisibility
3:00 am
Sat, Sep 21
55 °FClear.3 mph77%29.86 "HgN/A
2:30 am55 °FClear.6 mph77%29.86 "HgN/A
2:00 am57 °FClear.6 mph72%29.86 "HgN/A
1:30 am57 °FClear.6 mph72%29.86 "HgN/A
1:00 am57 °FClear.3 mph72%29.89 "HgN/A
12:30 am57 °FClear.6 mph72%29.89 "HgN/A
12:00 am59 °FClear.6 mph68%29.89 "HgN/A
11:30 pm
Fri, Sep 20
59 °FClear.6 mph68%29.92 "HgN/A
11:00 pm59 °FClear.6 mph72%29.92 "HgN/A
10:30 pm59 °FClear.3 mph72%29.92 "HgN/A
10:00 pm59 °FClear.6 mph72%29.92 "HgN/A
9:30 pm61 °FClear.8 mph72%29.92 "HgN/A
9:00 pm61 °FClear.6 mph72%29.92 "HgN/A
8:30 pm61 °FClear.6 mph68%29.92 "HgN/A
8:00 pm61 °FClear.6 mph68%29.95 "HgN/A
7:30 pm63 °FClear.6 mph64%29.92 "HgN/A
7:00 pm64 °FClear.6 mph60%29.92 "HgN/A
6:30 pm64 °FClear.6 mph60%29.95 "HgN/A
6:00 pm66 °FClear.8 mph56%29.95 "HgN/A
5:30 pm66 °FClear.8 mph56%29.95 "HgN/A
5:00 pm66 °FClear.8 mph56%29.95 "HgN/A
4:30 pm68 °FClear.8 mph53%29.95 "HgN/A
4:00 pm68 °FClear.6 mph56%29.98 "HgN/A
3:30 pm68 °FClear.6 mph56%29.98 "HgN/A
3:00 pm68 °FClear.8 mph56%29.98 "HgN/A
2:30 pm66 °FClear.6 mph60%29.98 "HgN/A
2:00 pm66 °FClear.6 mph60%29.98 "HgN/A
1:30 pm64 °FClear.6 mph64%30.01 "HgN/A
1:00 pm66 °FClear.6 mph60%30.01 "HgN/A
12:30 pm66 °FClear.6 mph60%30.01 "HgN/A
12:00 pm64 °FClear.6 mph60%30.01 "HgN/A
11:30 am63 °FClear.6 mph64%30.01 "HgN/A
11:00 am61 °FClear.6 mph63%30.04 "HgN/A
10:30 am61 °FClear.3 mph68%30.04 "HgN/A
10:00 am59 °FClear.3 mph68%30.04 "HgN/A
9:30 am57 °FClear.6 mph72%30.04 "HgN/A
9:00 am55 °FClear.3 mph72%30.04 "HgN/A
8:30 am52 °FClear.3 mph82%30.04 "HgN/A
8:00 am48 °FClear.1 mph94%30.04 "HgN/A
7:30 am48 °FClear.1 mph94%30.04 "HgN/A
7:00 am46 °FClear.1 mph93%30.04 "HgN/A
6:30 am46 °FClear.1 mph100%30.01 "HgN/A
6:00 am46 °FClear.1 mph100%30.01 "HgN/A
5:30 am52 °FCool.1 mph82%30.01 "HgN/A
5:00 am52 °FCool.1 mph82%30.04 "HgN/A
4:30 am52 °FClear.3 mph82%30.04 "HgN/A
4:00 am52 °FCool.3 mph82%30.04 "HgN/A
Weather by CustomWeather, © 2019

See weather overview